Regional Weather Roundup
Issued by NWS

Home | Current Version | Previous Version | Text Only | Print | Product List | Glossary Off
Versions: 1 2 3 4 5 6 7 8 9 10 11 12 13 14 15 16 17 18 19 20 21 22 23 24 25 26 27 28 29 30 31 32 33 34 35 36 37 38 39 40 41 42 43 44 45 46 47 48 49 50

000
ASUS43 KDMX 010403
RWRIA

WEATHER ROUNDUP FOR IOWA
NATIONAL WEATHER SERVICE DES MOINES IA
1100 PM CDT FRI SEP 30 2016

NOTE: "FAIR" INDICATES FEW OR NO CLOUDS BELOW 12,000 FEET WITH NO
SIGNIFICANT WEATHER AND/OR OBSTRUCTIONS TO VISIBILITY.

* - THESE STATIONS ARE NOT NWS STATIONS...THUS NOT UNDER NWS
QUALITY CONTROL.  THEY ALSO DO NOT REPORT WEATHER SUCH
AS PRECIPITATION OR FOG.

IAZ001>003-012>014-020>022-031>034-043>046-010500-
   NORTHWEST IOWA

CITY           SKY/WX    TMP DP  RH WIND       PRES   REMARKS
CARROLL *      CLOUDY    61  57  88 NE3       30.17S
CHEROKEE *     PTCLDY    55  54  97 CALM      30.17S
DENISON *      CLOUDY    55  54  94 CALM      30.15S
LE MARS *      MOCLDY    52  48  87 CALM      30.18S
SHELDON *      PTCLDY    48  48 100 CALM      30.17S
SIOUX CITY     PTCLDY    54  49  83 E5        30.16S
SPENCER        CLOUDY    59  55  87 E5        30.18S
STORM LAKE *   MOCLDY    57  54  88 SE7       30.18S
$$

IAZ055>058-069>071-079>083-090>094-010500-
   SOUTHWEST IOWA

CITY           SKY/WX    TMP DP  RH WIND       PRES   REMARKS
ATLANTIC *     CLOUDY    55  54  94 N3        30.16S
AUDUBON *      CLEAR     55  52  88 CALM      30.18S
CLARINDA *       N/A     59  54  82 MISG      30.16S
COUNCIL BLFS * PTCLDY    57  54  88 SE6       30.16S
CRESTON *      CLOUDY    61  55  82 NE5       30.17S
HARLAN  *      MOCLDY    55  54  94 CALM      30.20S
LAMONI         CLOUDY    60  56  86 NE3       30.15S
RED OAK *        N/A     54  52  94 CALM      30.16S
SHENANDOAH *   CLOUDY    54  52  94 CALM      30.16S
$$

IAZ047>049-059>061-072>074-084-010500-
   CENTRAL IOWA

CITY           SKY/WX    TMP DP  RH WIND       PRES   REMARKS
AMES           CLOUDY    61  58  90 NE5       30.16S
ANKENY *         N/A    N/A N/A N/A MISG        N/A
BOONE *        CLOUDY    61  55  82 CALM      30.16S
CHARITON *       N/A     59  57  94 CALM      30.13F
DES MOINES     CLOUDY    63  56  78 NE7       30.15S
GRINNELL*      CLOUDY    59  56  88 N5        30.15F
KNOXVILLE *    CLOUDY    61  55  82 NE5       30.13F
MARSHALLTOWN   CLOUDY    59  57  93 N6        30.15F
NEWTON *       CLOUDY    59  57  94 N7        30.14F
PELLA *        CLOUDY    60  56  85 NE5       30.15S
PERRY *        CLOUDY    61  58  89 NE5       30.17R
$$

IAZ004>006-015-016-023>025-035-036-010500-
   NORTH CENTRAL IOWA

CITY           SKY/WX    TMP DP  RH WIND       PRES   REMARKS
ALGONA *       CLOUDY    63  55  77 SE3       30.18F
CLARION *      CLOUDY    61  57  88 CALM      30.18S
ESTHERVILLE    CLOUDY    61  54  77 E6        30.19R
FORT DODGE *   CLOUDY    61  54  77 E5        30.18F
MASON CITY     CLOUDY    60  55  83 NE5       30.20S
FOREST CITY *  CLOUDY    59  52  77 CALM      30.19S
WEBSTER CITY * CLOUDY    61  57  88 NE3       30.16S
IOWA FALLS *   CLOUDY    60  56  85 CALM      30.18F
$$

IAZ007>011-017>019-026>030-037>042-050>054-066-010500-
   NORTHEAST IOWA

CITY           SKY/WX    TMP DP  RH WIND       PRES   REMARKS
CEDAR RAPIDS   CLOUDY    61  59  93 NE7       30.13S
CHARLES CITY * CLOUDY    61  57  88 NE3       30.18S
CLINTON *      CLOUDY    60  58  92 N9        30.11S
DECORAH *      CLOUDY    59  57  94 NE6G13    30.16F FOG
DUBUQUE        CLOUDY    59  58  96 N7        30.14S
MONTICELLO *   CLOUDY    61  57  88 NE7       30.13S
OELWEIN *      CLOUDY    59  57  94 NE5       30.16S
WATERLOO       CLOUDY    58  56  93 NW3       30.15S
$$

IAZ064-065-067-068-078-010500-
   EAST CENTRAL IOWA

CITY           SKY/WX    TMP DP  RH WIND       PRES   REMARKS
DAVENPORT      CLOUDY    60  58  92 N9        30.10F
IOWA CITY      CLOUDY    62  57  83 NE10      30.13F
MT. PLEASANT * CLOUDY    62  62 100 N8        30.11S
MUSCATINE *    MOCLDY    61  57  88 N9        30.11S
QUAD CITIES    CLOUDY    62  58  86 N5        30.09F
$$

IAZ062-063-075>077-085>089-095>099-010500-
   SOUTHEAST IOWA

CITY           SKY/WX    TMP DP  RH WIND       PRES   REMARKS
BURLINGTON     CLOUDY    59  59 100 N8        30.09S
FAIRFIELD *    CLOUDY    61  55  82 N7        30.12S
FORT MADISON *   N/A     61  57  88 N6        30.10F
KEOKUK *       CLOUDY    61  59  94 NW6       30.09F
OSKALOOSA *    CLOUDY    60  56  88 N5        30.13F
OTTUMWA        CLOUDY    61  55  81 N6        30.13S
WASHINGTON *     N/A    N/A N/A N/A MISG        N/A
$$

ABBREVIATIONS USED IN REMARKS
   TC - TEMPERATURES IN CELSIUS
  WCI - WIND CHILL INDEX
   HX - HEAT INDEX
  VSB - VISIBILITY
$$




USA.gov is the U.S. government's official web portal to all federal, state and local government web resources and services.